Location: Madrid
(40.4000°N, 3.6830°W)
Time: 08:45:07
(UTC+02:00)

ISS - Pass Details

Date: 20 July 2017
Orbit: 400 x 408 km, 51.6° (Epoch: 21 July)

Event Time Altitude Azimuth Distance (km) Brightness Sun altitude
Exits shadow 02:52:50 15° 344° (NNW) 1,201 -0.8 -28.5°
Maximum altitude 02:52:56 15° 346° (NNW) 1,200 -0.7 -28.5°
Drops below altitude 10° 02:54:52 10° 23° (NNE) 1,455 -0.1 -28.4°
Sets 02:57:39 0° 48° (NE) 2,317 0.7 -28.4°
